Simultaneous Nadir Overpasses (SNOs) Predictions

Prediction of SNOs between GOES-14 and NOAA-20 Satellite Orbit:

Table of predicted SNOs for the next 14.0 days since TLE Epoch: 11/4/2022
Index Date Time (GOES-14) GOES-14 Lat,Lon NOAA-20 Lat,Lon Distance(km) Time Diff (sec)
1 11/04/2022 20:10:54 -0.11,-104.16 0.53,-101.27 328.82 80
2 11/06/2022 08:32:43 0.08,-104.35 0.57,-106.56 251.67 80
3 11/07/2022 08:11:17 0.10,-104.34 -0.42,-102.02 263.87 80
4 11/08/2022 20:33:13 -0.07,-104.13 -0.79,-107.32 363.51 80
5 11/09/2022 20:17:07 -0.08,-104.14 0.21,-102.78 154.44 80
6 11/11/2022 08:38:55 0.05,-104.36 0.89,-108.06 421.87 80
7 11/12/2022 08:17:30 0.07,-104.35 -0.10,-103.53 93.59 80
8 11/14/2022 20:20:40 -0.05,-104.11 -0.09,-104.29 20.09 80
9 11/15/2022 20:04:34 -0.07,-104.12 0.91, -99.75 497.78 80
10 11/17/2022 08:26:23 0.03,-104.36 0.18,-105.03 76.56 80
11 11/18/2022 08:04:57 0.05,-104.35 -0.82,-100.50 439.19 80
